Location: Zlin
(49.2330°N, 17.6670°E)
Time: 10:02:58
(UTC+01:00)

ISS - Visible Passes

Search period start: 25 February 2017 00:00
Search period end: 07 March 2017 00:00
Orbit: 399 x 408 km, 51.6° (Epoch: 25 February)

Date Brightness Start Highest point End Pass type
(mag) Time Alt. Az. Time Alt. Az. Time Alt. Az.
01 Mar -0.4 05:57:24 10° S 05:59:20 15° SE 06:01:15 10° ESE visible
03 Mar -1.3 05:47:29 10° SSW 05:50:20 27° SE 05:53:11 10° E visible
04 Mar -0.7 04:55:41 10° S 04:57:56 17° SE 05:00:10 10° E visible
05 Mar -0.3 04:05:07 10° SE 04:05:34 10° SE 04:06:01 10° SE visible
05 Mar -2.5 05:38:12 10° SW 05:41:24 49° SSE 05:44:37 10° ENE visible
06 Mar -1.8 04:47:10 19° SSW 04:48:53 31° SE 04:51:51 10° E visible
